Regional Weather Roundup
Issued by NWS

Home | Current Version | Previous Version | Text Only | Print | Product List | Glossary On
Versions: 1 2 3 4 5 6 7 8 9 10 11 12 13 14 15 16 17 18 19 20 21 22 23 24 25 26 27 28 29 30 31 32 33 34 35 36 37 38 39 40 41 42 43 44 45 46 47 48 49 50
000
ASUS45 KCYS 190010
RWRWY

WYOMING REGIONAL WEATHER ROUNDUP
NATIONAL WEATHER SERVICE CHEYENNE WY
600 PM MDT THU SEP 18 2014

NOTE:  "FAIR" INDICATES FEW OR NO CLOUDS BELOW 12,000 FEET
WITH NO SIGNIFICANT WEATHER AND/OR OBSTRUCTIONS TO VISIBILITY.

WYZ001-190100-
YELLOWSTONE NATIONAL PARK

CITY           SKY/WX    TMP DP  RH WIND       PRES   REMARKS
LK YELLOWSTONE   N/A     57  49  74 CALM      30.08S
6HR MIN TEMP:  52; 6HR MAX TEMP:  62; 6HR PCP:  0.05;

W YELLOWSTONE  NOT AVBL

$$
WYZ002>013-054>058-071-098>099-190100-
NORTHERN WYOMING

CITY           SKY/WX    TMP DP  RH WIND       PRES   REMARKS
JACKSON        NOT AVBL
CODY             N/A    N/A N/A N/A MISG        N/A
GREYBULL       CLOUDY    77  48  35 W6        29.76F
6HR MIN TEMP:  74; 6HR MAX TEMP:  85; 6HR PCP: TRACE;

WORLAND        PTSUNNY   79  47  32 N3        29.77S
6HR MIN TEMP:  79; 6HR MAX TEMP:  86;

SHERIDAN       PTSUNNY   72  56  57 S7        29.78F
6HR MIN TEMP:  72; 6HR MAX TEMP:  84;

BUFFALO        MOSUNNY   72  50  45 W6        29.87F
6HR MIN TEMP:  72; 6HR MAX TEMP:  84;

GILLETTE       PTSUNNY   77  46  33 NE14      29.81F
6HR MIN TEMP:  77; 6HR MAX TEMP:  92;

HULETT         FAIR      79  50  36 MISG      29.83
NEWCASTLE      FAIR      90  37  15 SE8       29.78

$$
WYZ014>020-022>026-101>103-190100-
CENTRAL WYOMING

CITY           SKY/WX    TMP DP  RH WIND       PRES   REMARKS
BIG PINEY      MOSUNNY   74  41  30 W12       29.99S
6HR MIN TEMP:  69; 6HR MAX TEMP:  83;

PINEDALE       PTCLDY    75  36  23 SW10      30.00S
DUBOIS         FAIR      64  41  42 NW17G23   30.01R
LANDER         MOSUNNY   82  38  20 S8        29.82F
6HR MIN TEMP:  76; 6HR MAX TEMP:  89;

RIVERTON       MOSUNNY   86  33  15 S10       29.83F
6HR MIN TEMP:  74; 6HR MAX TEMP:  90;

CASPER         SUNNY     86  30  13 SW12      29.86F
6HR MIN TEMP:  85; 6HR MAX TEMP:  92;

DOUGLAS        SUNNY     88  36  15 W6        29.85S
6HR MIN TEMP:  83; 6HR MAX TEMP:  92;


$$
WYZ021-027>030-104>119-190100-
SOUTHERN WYOMING

CITY           SKY/WX    TMP DP  RH WIND       PRES   REMARKS
EVANSTON       MOSUNNY   79  38  22 W21G28    30.00F
KEMMERER       PTCLDY   N/A N/A N/A SW15G24   30.02S
FORT BRIDGER   FAIR      80  37  21 W14       30.02S
ROCK SPRINGS   SUNNY     80  32  17 S20       29.96F
6HR MIN TEMP:  77; 6HR MAX TEMP:  84;

DIXON          FAIR      80  40  23 W5        30.02F
RAWLINS        SUNNY     80  25  13 SW9G25    30.01F
6HR MIN TEMP:  80; 6HR MAX TEMP:  84;

SARATOGA       FAIR      79  34  19 N3        30.04S
LARAMIE        MOSUNNY   77  33  20 SE16      30.05F
6HR MIN TEMP:  77; 6HR MAX TEMP:  82;

CHEYENNE       SUNNY     82  29  14 S12       29.99F
6HR MIN TEMP:  82; 6HR MAX TEMP:  87;

TORRINGTON     SUNNY     86  49  27 SE12      29.82S
6HR MIN TEMP:  76; 6HR MAX TEMP:  91;

PINE BLUFFS    FAIR      84  32  15 S10G16    29.93S

$$


USA.gov is the U.S. government's official web portal to all federal, state and local government web resources and services.